AO-07 1 07530U 74089B 15028.89432422 -.00000037 00000-0 38403-4 0 1808 2 07530 101.5035 008.5341 0011752 213.4935 174.7630 12.53611465839806 FO-29 1 24278U 96046B 15028.90429457 -.00000014 00000-0 18998-4 0 5692 2 24278 098.5240 016.6501 0351356 072.0931 320.5835 13.53042019911192 SO-33 1 25509U 98061B 15029.25359755 .00000522 00000-0 89136-4 0 9331 2 25509 031.4335 319.2205 0348577 295.3435 233.9451 14.29813480849524 RS-22 1 27939U 03042A 15029.44657949 .00000902 00000-0 17368-3 0 2604 2 27939 097.8244 197.6622 0013938 107.5494 252.7231 14.65742688605861 HO-68 1 36122U 09072B 15029.38063287 -.00000060 00000-0 -43517-4 0 3431 2 36122 100.2157 079.0204 0007697 078.1580 282.0398 13.16323508246198 AO-73 1 39444U 13066AE 15028.40673339 .00001980 00000-0 26390-3 0 3682 2 39444 097.7492 096.2316 0059853 230.1642 129.4295 14.79515305 62740 EO-79 1 40025U 14033R 15029.37968183 .00002032 00000-0 23613-3 0 6569 2 40025 097.9640 289.4026 0012033 282.7103 077.2764 14.86428918 33179 UO-11 1 14781U 84021B 15028.77076269 .00000867 00000-0 11543-3 0 7273 2 14781 097.8213 089.1689 0009467 158.8400 201.3206 14.82114136661374 AO-16 1 20439U 90005D 15029.07481576 .00000131 00000-0 64236-4 0 2293 2 20439 098.5303 327.4038 0010474 206.0223 218.8056 14.32479105306821 LO-19 1 20442U 90005G 15028.38830616 .00000108 00000-0 55761-4 0 1615 2 20442 098.5013 326.7064 0011630 196.6440 163.4364 14.32674921306925 AO-27 1 22825U 93061C 15028.05506706 .00000092 00000-0 53087-4 0 8765 2 22825 098.6925 338.2639 0008286 006.8685 123.8251 14.29824794112917 IO-26 1 22826U 93061D 15029.09653174 .00000118 00000-0 63005-4 0 6334 2 22826 098.6870 339.4891 0008608 355.4253 004.6849 14.30136312113208 GO-32 1 25397U 98043D 15028.93106641 .00000068 00000-0 48433-4 0 5543 2 25397 098.5028 343.8753 0001777 055.0216 346.0081 14.23510961859987 NO-44 1 26931U 01043C 15028.50742035 .00000125 00000-0 80241-4 0 8098 2 26931 067.0517 177.3759 0006864 267.8324 092.1991 14.30245543695826 SO-50 1 27607U 02058C 15029.14395775 .00000692 00000-0 12078-3 0 6495 2 27607 064.5547 263.2473 0072850 316.3747 043.1609 14.74402333650785 CO-55 1 27844U 03031E 15028.78006728 .00000340 00000-0 17477-3 0 1264 2 27844 098.6970 039.2962 0009211 349.8228 063.6246 14.21694331600632 CO-57 1 27848U 03031J 15029.26022373 .00000230 00000-0 12534-3 0 633 2 27848 098.7067 039.6034 0009197 355.8445 066.1947 14.21357577600611 AO-51 1 28375U 04025K 15029.28904437 .00000299 00000-0 10116-3 0 498 2 28375 098.2795 333.8375 0083303 029.9978 330.5947 14.41564254556485 CP3 1 31129U 07012N 15028.65759804 .00001751 00000-0 38817-3 0 9585 2 31129 097.9635 000.6501 0097842 029.3893 019.0171 14.55386355412824 CO-65 1 32785U 08021C 15029.18341877 .00001762 00000-0 20577-3 0 1781 2 32785 097.6684 077.7761 0014412 160.5285 235.6935 14.86288827365585 PRISM 1 33493U 09002B 15029.52940514 .00003277 00000-0 32991-3 0 7152 2 33493 098.2526 220.2641 0017526 064.7889 295.5178 14.91826087325896 SOHLA-1 1 33496U 09002E 15029.17407587 .00000553 00000-0 98113-4 0 5739 2 33496 098.1925 156.0654 0005472 236.6308 245.4896 14.71162387322739 TISAT-1 1 36799U 10035E 15029.21244291 .00004631 00000-0 51734-3 0 8799 2 36799 098.0143 128.1229 0012095 305.0871 084.9576 14.87416395246297 STUDSAT 1 36801U 10035G 15028.20963722 .00019741 00000-0 13875-2 0 9947 2 36801 098.0509 140.7440 0006722 253.6085 166.0609 15.05127899246868 ALMASAT-1 1 38078U 12006B 15029.10003736 .00037031 00000-0 70391-3 0 2857 2 38078 069.4564 228.1774 0522553 088.7115 277.3857 14.66931523154554 XATCOBEO 1 38082U 12006F 14243.34478676 .13583328 43697-5 37939-3 0 5637 2 38082 069.3815 097.0364 0033293 225.1799 135.4582 16.41261006136239 CUBEBUG-1 1 39153U 13018D 15029.18870651 .00001575 00000-0 22170-3 0 8269 2 39153 098.0256 113.9640 0016813 345.8433 014.2305 14.78670400 94933 ESTCUBE-1 1 39161U 13021C 15029.36637731 .00001046 00000-0 17953-3 0 8864 2 39161 098.0815 113.5031 0010476 042.8545 317.3480 14.70736242 92837 DUCHIFAT-1 1 40021U 14033M 15029.40612643 .00002547 00000-0 29053-3 0 6617 2 40021 097.9659 289.5716 0012715 282.9699 077.0130 14.86974093 33176 NANOSATCBR1 1 40024U 14033Q 15029.43040366 .00002421 00000-0 27836-3 0 6483 2 40024 097.9640 289.4942 0011691 280.4050 079.5865 14.86695003 33178 DTUSAT-2 1 40030U 14033W 15028.96503327 .00001953 00000-0 22951-3 0 6402 2 40030 097.9640 288.8316 0011205 275.5253 084.4696 14.86033565 33103 ANTELSAT 1 40034U 14033AA 15029.27948631 .00001401 00000-0 22436-3 0 6598 2 40034 097.9582 284.2941 0060056 204.0458 155.7944 14.72157220 32857 MET-2/21 1 22782U 93055A 15028.88086603 .00000079 00000-0 58139-4 0 2874 2 22782 082.5515 354.2115 0021967 355.5961 033.5190 13.83758686 81330 OKEAN-4 1 23317U 94066A 15029.24055796 .00001315 00000-0 14624-3 0 7725 2 23317 082.5362 215.8894 0021405 072.2369 085.1349 14.86251655 96673 NOAA-14 1 23455U 94089A 15029.51952155 .00000114 00000-0 82895-4 0 677 2 23455 098.7615 113.7780 0010544 114.7694 001.9177 14.14018058 35937 NOAA-15 1 25338U 98030A 15029.56026703 .00000210 00000-0 10759-3 0 5070 2 25338 098.7669 028.1529 0010329 205.5980 260.3009 14.25555293869092 RESURS 1 25394U 98043A 15028.51319563 .00000017 00000-0 25240-4 0 8642 2 25394 098.4472 348.7759 0000968 019.8082 117.3905 14.24437258860395 FENGYUN1 1 25730U 99025A 15028.49927626 .00001375 00000-0 76124-3 0 3536 2 25730 098.9324 353.5415 0018523 188.5422 310.7553 14.12934648809327 OKEAN-0 1 25860U 99039A 15028.53924498 .00000734 00000-0 11479-3 0 4782 2 25860 098.0762 356.5356 0001833 089.5339 047.5610 14.75764429835389 NOAA-16 1 26536U 00055A 15029.52666043 .00000063 00000-0 57690-4 0 48 2 26536 098.9602 095.5279 0009647 262.4235 097.5841 14.13072186740070 NOAA-17 1 27453U 02032A 15029.53082357 .00000112 00000-0 65507-4 0 9001 2 27453 098.3290 022.4806 0011058 225.2585 134.7696 14.24846904654913 NOAA-18 1 28654U 05018A 15029.56759139 .00000090 00000-0 74621-4 0 4191 2 28654 099.1736 018.9107 0014007 353.1024 111.0661 14.12141575499513 NOAA-19 1 33591U 09005A 15029.50883803 .00000262 00000-0 16783-3 0 5508 2 33591 098.9744 339.1848 0013798 197.1633 296.7421 14.11862167307927 HUBBLE 1 20580U 90037B 15028.62739583 .00002860 00000-0 17630-3 0 2105 2 20580 028.4717 353.9520 0002938 176.7707 153.7168 15.06695676158736 ISS 1 25544U 98067A 15029.56758670 .00011231 00000-0 17654-3 0 7960 2 25544 051.6483 056.2038 0005834 303.7241 193.7872 15.54136617926466 CO-58 1 28895U 05043F 15028.42962833 .00000723 00000-0 15130-3 0 9802 2 28895 097.8218 223.5112 0017355 023.3942 336.8047 14.62448528493167 FALCON 1 30776U 07006E 15028.81327302 .00010870 00000-0 48042-3 0 626 2 30776 035.4274 152.7460 0002683 129.3080 004.6761 15.20990274435046 MAST 1 31126U 07012K 15028.69046947 .00001036 00000-0 23375-3 0 2631 2 31126 097.9433 003.2251 0091465 011.9269 039.7628 14.55762363413191 CAPE1 1 31130U 07012P 15028.88723217 .00001673 00000-0 37351-3 0 2680 2 31130 097.9651 000.3796 0098506 030.3417 330.3432 14.55091482412620 COMPASS 1 32787U 08021E 15028.81482212 .00003032 00000-0 32226-3 0 1653 2 32787 097.6720 080.7216 0014366 150.7630 209.4395 14.89650889365752 AAUSAT2 1 32788U 08021F 15029.10231249 .00003840 00000-0 39750-3 0 1521 2 32788 097.6734 082.2895 0013749 147.3069 212.9003 14.90568731365874 DO-64 1 32789U 08021G 15028.17699029 .00007518 00000-0 65251-3 0 2041 2 32789 097.6922 090.3433 0012350 133.6871 288.0671 14.97267131366118 CO-66 1 32791U 08021J 15028.72796974 .00002689 00000-0 29866-3 0 1474 2 32791 097.6714 078.8796 0014967 156.1651 204.0262 14.87940418365573 RS-30 1 32953U 08025A 15029.31701933 .00000010 00000-0 -13620-7 0 6865 2 32953 082.5014 060.6056 0018976 026.6368 333.5681 12.43055759303353 METEOR-M 1 35865U 09049A 15029.24161280 .00000057 00000-0 44747-4 0 2951 2 35865 098.5198 074.4358 0002609 144.4297 215.7059 14.21983702278461 RS-38 1 35869U 09049E 15029.30151969 .00000013 00000-0 24919-4 0 2013 2 35869 098.5122 074.1908 0004821 146.9107 213.2374 14.22266215278518 JUGNU 1 37839U 11058B 15028.21040994 .00000424 00000-0 84301-4 0 7820 2 37839 019.9622 331.0452 0018882 304.3407 196.4697 14.12411403170402 SRMSAT 1 37841U 11058D 15029.22707845 .00000406 00000-0 78385-4 0 7870 2 37841 019.9733 348.7581 0011691 246.3457 244.6803 14.10434646170303 RAX-2 1 37853U 11061D 15028.33634012 .00010164 00000-0 64558-3 0 267 2 37853 101.7045 170.9684 0203444 123.8675 297.6551 14.93674056176217 AUBIESAT 1 37854U 11061E 15028.91566097 .00010185 00000-0 62020-3 0 264 2 37854 101.7109 174.5946 0200014 117.8298 039.4525 14.95556813176387 HRBE 1 37855U 11061F 15028.32731569 .00010244 00000-0 63610-3 0 462 2 37855 101.7098 172.6733 0202668 121.7755 240.3370 14.94537213176245 RS-39 1 38051U 11062C 14288.65876392 .70201582 12497-4 27925-2 0 413 2 38051 051.5964 324.1908 0006422 269.6897 186.8903 16.43533377153081 E-STAR 1 38079U 12006C 15016.13455217 .17990388 48979-5 52837-3 0 2142 2 38079 069.3967 125.0648 0013168 047.0341 316.5109 16.44007688156194 GOLIAT 1 38085U 12006J 15029.44338731 .00514975 95184-4 13725-2 0 7746 2 38085 069.4216 103.1903 0130474 019.5029 087.1376 15.81352336157862 HORYU-2 1 38340U 12025D 15029.15988978 .00001854 00000-0 29222-3 0 810 2 38340 098.2964 355.7147 0012385 172.3474 187.7925 14.73642063145057 RS-40 1 38735U 12041C 15029.37970202 .00000040 00000-0 21992-3 0 9902 2 38735 082.4785 146.5272 0017676 123.6210 236.6560 12.42567043113671 PROITERES 1 38756U 12047B 15029.53575631 .00000774 00000-0 12151-3 0 6353 2 38756 098.2203 126.5376 0012866 026.2185 333.9678 14.75504441128557 BEESAT-3 1 39134U 13015E 15029.15509681 .00010636 00000-0 66320-3 0 8403 2 39134 064.8742 141.4817 0035353 271.7323 087.9750 15.09412768 97693 BEESAT-2 1 39136U 13015G 15028.81368688 .00007127 00000-0 46307-3 0 8131 2 39136 064.8744 143.9790 0035759 271.6675 088.0351 15.08220805 97623 LO-75 1 39382U 13064C 14295.69194059 .07301741 00000-0 36367-2 0 4875 2 39382 040.4713 030.2705 0002289 341.7175 018.4586 16.19795749470823 ZACUBE-1 1 39417U 13066B 15027.99207849 .00001456 00000-0 19770-3 0 5251 2 39417 097.7485 095.6969 0060413 231.9750 127.5999 14.79109336 63904 TRITON-1 1 39427U 13066M 15029.21799987 .00001395 00000-0 23814-3 0 3780 2 39427 097.7349 088.0445 0115673 250.2099 108.6604 14.66180241 63495 DELFIN3XT 1 39428U 13066N 15028.40652620 .00002288 00000-0 39308-3 0 3803 2 39428 097.7355 085.8725 0124824 256.8359 101.8893 14.64590776 63275 GOMX-1 1 39430U 13066Q 15029.43073360 .00001150 00000-0 22424-3 0 2074 2 39430 097.7279 082.4559 0153596 266.6968 091.6664 14.57594569 63160 MO-76 1 39436U 13066W 15028.66716337 .00017840 00000-0 14629-2 0 4805 2 39436 097.7547 104.7056 0023239 217.5412 142.4189 14.99089823 64530 LO-74 1 39440U 13066AA 15027.98098434 .00001395 00000-0 20886-3 0 3715 2 39440 097.7436 092.1966 0082042 239.9882 119.3168 14.73971490 63674 PUCPSAT-1 1 39442U 13066AC 15028.83549919 .00002445 00000-0 27221-3 0 3752 2 39442 097.7556 102.0333 0033126 221.1219 138.7501 14.87638300 63147 SHINAISAT 1 39572U 14009A 14328.13084988 .28848087 76253-5 66603-3 0 4474 2 39572 064.9728 197.0096 0013534 259.7861 100.1802 16.45181032 42403 TEIKYOSAT 1 39576U 14009E 14297.85867254 .09345816 76764-5 25176-3 0 4374 2 39576 064.9818 300.5833 0008491 317.3597 044.3862 16.45008906 37698 CO-77 1 39577U 14009F 14244.78324653 .10543803 76292-5 32273-3 0 3795 2 39577 064.9920 123.7668 0014904 269.7208 091.1897 16.43552757 29380 SPROUT 1 39770U 14029E 15028.77467130 .00001486 00000-0 18773-3 0 2657 2 39770 097.8702 127.5730 0008824 300.1262 059.9094 14.83355890 36968 POPSAT-HIP1 1 40028U 14033U 15029.47145498 .00001803 00000-0 21105-3 0 6827 2 40028 097.9682 289.5408 0013335 278.4697 081.5026 14.86265830 33170 EO-80 1 40032U 14033Y 15029.30570073 .00002016 00000-0 23685-3 0 6625 2 40032 097.9633 289.1817 0011387 274.5690 085.4222 14.86002607 33156 VELOX-1 1 40057U 14034E 15029.52113068 .00001771 00000-0 27043-3 0 6757 2 40057 098.2288 105.3458 0010930 326.3589 033.6929 14.75090952 31435 DAURIA DX 1 1 40071U 14037C 15029.55256015 .00000823 00000-0 11628-3 0 6455 2 40071 098.3748 095.1844 0008056 331.1581 028.9195 14.80037938 30285 UKUBE-1 1 40074U 14037F 15029.53802150 .00001697 00000-0 22409-3 0 6463 2 40074 098.3758 095.5556 0004538 345.2804 014.8291 14.81448896 30302 CHASQUI-1 1 40117U 98067ET 15014.73322295 .07508583 12315-4 10026-2 0 4726 2 40117 051.6189 112.4445 0004239 337.2783 022.7551 16.34635278 23368 HODOYOSHI-1 1 40299U 14070B 15029.52528368 .00003285 00000-0 16497-3 0 2601 2 40299 097.4669 112.8447 0012117 255.6045 229.3346 15.17934581 12762 CHUBUSAT-1 1 40300U 14070C 15029.50881659 .00004423 00000-0 23280-3 0 2611 2 40300 097.4638 112.5398 0021832 255.9962 230.1926 15.15946679 12750 QSAT-EOS 1 40301U 14070D 15029.50488550 .00008045 00000-0 44063-3 0 2813 2 40301 097.4607 112.2116 0033107 255.6142 230.8908 15.14007663 12732 TSUBAME 1 40302U 14070E 15029.68613676 .00006538 00000-0 38403-3 0 2559 2 40302 097.4586 112.0427 0043493 255.6800 103.9657 15.11240056 12735 /EX
